This demonstration page uses our WeatherBlox Daily Observations layout. Learn more.

Left ArrowRight Arrow

Hourly Observations for August 16, 2022

Temp ( °F °C ) Dew Point ( °F °C ) Humidity (%) Winds ( mph kmh ) Pressure ( in mb ) Visibility ( mi km ) Precip ( " mm )
12:53 am 00:53 Clear 62 16.7 52 11.1 70 70 ENE 8 13 30.01 1016 10 16 0.00 0.00
1:53 am 01:53 Clear 62 16.7 51 10.6 67 67 NNE 6 9 30.01 1016 10 16 0.00 0.00
2:53 am 02:53 Clear 63 17.2 51 10.6 65 65 ENE 7 11 29.99 1016 10 16 0.00 0.00
3:53 am 03:53 Clear 62 16.7 52 11.1 70 70 ENE 7 11 30.00 1016 10 16 0.00 0.00
4:53 am 04:53 Clear 61 16.1 51 10.6 70 70 ENE 6 9 30.01 1016 10 16 0.00 0.00
5:53 am 05:53 Clear 57 13.9 51 10.6 80 80 E 3 6 30.05 1018 10 16 0.00 0.00
6:53 am 06:53 Sunny 54 12.2 50 10 86 86 Calm 30.08 1019 10 16 0.00 0.00
7:53 am 07:53 Sunny 60 15.6 51 10.6 72 72 NE 3 6 30.07 1018 10 16 0.00 0.00
8:53 am 08:53 Sunny 67 19.4 52 11.1 59 59 Calm 30.06 1018 10 16 0.00 0.00
9:53 am 09:53 Sunny 72 22.2 52 11.1 49 49 Calm 30.05 1018 10 16 0.00 0.00
10:53 am 10:53 Mostly Sunny 78 25.6 49 9.4 36 36 VRB 5 7 30.02 1017 10 16 0.00 0.00
11:53 am 11:53 Partly Cloudy 78 25.6 48 8.9 35 35 VRB 5 7 30.01 1016 10 16 0.00 0.00
12:53 pm 12:53 Mostly Cloudy 84 28.9 46 7.8 27 27 ENE 8 13 29.98 1015 10 16 0.00 0.00
1:53 pm 13:53 Partly Cloudy 84 28.9 44 6.7 25 25 VRB 6 9 29.96 1015 10 16 0.00 0.00
2:53 pm 14:53 Mostly Cloudy 81 27.2 47 8.3 30 30 ESE 7 11 29.96 1015 10 16 0.00 0.00
3:23 pm 15:23 Mostly Cloudy 78 25.6 52 11.1 40 40 SSE 15 24 29.67 1005 10 16 0.00 0.00
3:53 pm 15:53 Sunny 78 25.6 52 11.1 40 40 SE 15 24 29.96 1015 10 16 0.00 0.00
4:53 pm 16:53 Sunny 81 27.2 49 9.4 33 33 SE 18 30 29.96 1015 10 16 0.00 0.00
5:53 pm 17:53 Sunny 80 26.7 47 8.3 31 31 ESE 15 24 29.98 1015 10 16 0.00 0.00
6:53 pm 18:53 Sunny 77 25 45 7.2 32 32 ESE 16 26 30.01 1016 10 16 0.00 0.00
7:53 pm 19:53 Sunny 73 22.8 45 7.2 37 37 E 13 20 30.02 1017 10 16 0.00 0.00
8:53 pm 20:53 Clear 68 20 46 7.8 45 45 NE 9 15 30.04 1017 10 16 0.00 0.00
9:53 pm 21:53 Clear 65 18.3 47 8.3 52 52 NNE 9 15 30.06 1018 10 16 0.00 0.00
10:53 pm 22:53 Clear 62 16.7 48 8.9 60 60 E 9 15 30.06 1018 10 16 0.00 0.00
11:53 pm 23:53 Clear 58 14.4 48 8.9 70 70 Calm 30.08 1019 10 16 0.00 0.00

Powered by AerisWeather